TimeEDT,TemperatureF,Dew PointF,Humidity,Sea Level PressureIn,VisibilityMPH,Wind Direction,Wind SpeedMPH,Gust SpeedMPH,PrecipitationIn,Events,Conditions,WindDirDegrees,DateUTC
12:51 AM,45.0,32.0,60,29.62,10.0,WNW,3.5,-,N/A,,Overcast,290,2013-10-24 04:51:00
1:51 AM,45.0,30.9,58,29.63,10.0,WNW,6.9,-,N/A,,Overcast,300,2013-10-24 05:51:00
2:51 AM,44.1,30.9,60,29.63,10.0,Calm,Calm,-,N/A,,Overcast,0,2013-10-24 06:51:00
3:51 AM,42.1,30.0,62,29.64,10.0,Variable,3.5,-,N/A,,Mostly Cloudy,0,2013-10-24 07:51:00
4:51 AM,41.0,30.0,65,29.67,10.0,SW,3.5,-,N/A,,Overcast,230,2013-10-24 08:51:00
5:51 AM,41.0,30.0,65,29.69,10.0,Variable,4.6,-,N/A,,Clear,0,2013-10-24 09:51:00
6:51 AM,39.0,30.9,73,29.70,10.0,SW,3.5,-,N/A,,Clear,230,2013-10-24 10:51:00
7:51 AM,37.9,30.9,76,29.73,10.0,Calm,Calm,-,N/A,,Clear,0,2013-10-24 11:51:00
8:51 AM,42.1,30.0,62,29.74,10.0,Variable,4.6,-,N/A,,Clear,0,2013-10-24 12:51:00
9:51 AM,45.0,26.1,48,29.74,10.0,Variable,6.9,-,N/A,,Clear,0,2013-10-24 13:51:00
10:51 AM,46.9,26.1,44,29.73,10.0,Variable,6.9,19.6,N/A,,Clear,0,2013-10-24 14:51:00
11:51 AM,46.9,26.1,44,29.73,10.0,Variable,6.9,21.9,N/A,,Mostly Cloudy,0,2013-10-24 15:51:00
12:51 PM,51.1,27.0,39,29.71,10.0,Variable,4.6,16.1,N/A,,Overcast,0,2013-10-24 16:51:00
1:51 PM,50.0,26.1,39,29.71,10.0,West,11.5,24.2,N/A,,Scattered Clouds,270,2013-10-24 17:51:00
2:51 PM,48.9,25.0,39,29.72,10.0,West,10.4,18.4,N/A,,Overcast,280,2013-10-24 18:51:00
3:51 PM,48.9,26.1,41,29.73,10.0,West,8.1,-,N/A,,Overcast,270,2013-10-24 19:51:00
4:51 PM,48.0,26.1,42,29.73,10.0,Variable,6.9,-,N/A,,Overcast,0,2013-10-24 20:51:00
5:51 PM,46.9,26.1,44,29.75,10.0,Calm,Calm,-,N/A,,Overcast,0,2013-10-24 21:51:00
6:51 PM,46.9,27.0,46,29.77,10.0,Variable,5.8,-,N/A,,Overcast,0,2013-10-24 22:51:00
7:51 PM,45.0,27.0,49,29.79,10.0,Variable,5.8,-,N/A,,Clear,0,2013-10-24 23:51:00
8:51 PM,44.1,27.0,51,29.80,10.0,Variable,4.6,-,N/A,,Clear,0,2013-10-25 00:51:00
9:51 PM,43.0,28.0,56,29.82,10.0,Calm,Calm,-,N/A,,Partly Cloudy,0,2013-10-25 01:51:00
10:51 PM,42.1,28.9,60,29.83,10.0,Calm,Calm,-,N/A,,Partly Cloudy,0,2013-10-25 02:51:00
11:51 PM,42.1,30.9,65,29.85,10.0,Calm,Calm,-,N/A,,Overcast,0,2013-10-25 03:51:00